This is the latest recevied weather packets stored in our database for station/object KD5FHA. If no packets are shown the sender has not sent any weather packets the latest 10 day(s).
| Time | Temp. | Humidity | Pressure | Rain* | Wind** | Luminosity | Snow |
|---|---|---|---|---|---|---|---|
| 1778118588 | 15.56° C | 87% | 1016 hPa | 0 mm | - | 0 W/m² | - |
| 1778118285 | 15.56° C | 87% | 1015.9 hPa | 0 mm | - | 0 W/m² | - |
| 1778117981 | 15.56° C | 87% | 1015.9 hPa | 0 mm | - | 0 W/m² | - |
| 1778117678 | 15° C | 87% | 1015.6 hPa | 0 mm | - | 0 W/m² | - |
| 1778117375 | 15.56° C | 87% | 1015.4 hPa | 0 mm | - | 0 W/m² | - |
| 1778117072 | 15.56° C | 88% | 1015.4 hPa | 0 mm | - | 0 W/m² | - |
| 1778116763 | 15.56° C | 88% | 1015.1 hPa | 0 mm | - | 1 W/m² | - |
| 1778116461 | 15.56° C | 87% | 1015.1 hPa | 0 mm | - | 3 W/m² | - |
| 1778116159 | 15.56° C | 87% | 1015 hPa | 0 mm | - | 3 W/m² | - |
| 1778115855 | 15.56° C | 88% | 1015 hPa | 0 mm | - | 4 W/m² | - |
| 1778115552 | 15.56° C | 89% | 1015 hPa | 0 mm | - | 7 W/m² | - |
| 1778115249 | 15.56° C | 89% | 1014.9 hPa | 0 mm | - | 10 W/m² | - |
| 1778114946 | 15° C | 90% | 1014.9 hPa | 0 mm | - | 12 W/m² | - |
| 1778114643 | 15° C | 90% | 1014.9 hPa | 0 mm | - | 16 W/m² | - |
| 1778114340 | 15.56° C | 91% | 1015 hPa | 0 mm | - | 18 W/m² | - |
| 1778114035 | 15.56° C | 91% | 1014.7 hPa | 0 mm | - | 23 W/m² | - |
| 1778113731 | 15.56° C | 91% | 1014.9 hPa | 0 mm | - | 27 W/m² | - |
| 1778113427 | 15.56° C | 91% | 1014.8 hPa | 0 mm | - | 33 W/m² | - |
| 1778113124 | 15.56° C | 91% | 1014.7 hPa | 0 mm | - | 36 W/m² | - |
| 1778112821 | 15.56° C | 91% | 1014.9 hPa | 0 mm | - | 45 W/m² | - |
| 1778112517 | 15.56° C | 91% | 1014.9 hPa | 0 mm | - | 48 W/m² | - |
| 1778112213 | 15.56° C | 91% | 1014.7 hPa | 0 mm | - | 58 W/m² | - |
| 1778111910 | 15.56° C | 91% | 1014.6 hPa | 0 mm | - | 62 W/m² | - |
| 1778111606 | 15.56° C | 91% | 1014.5 hPa | 0 mm | - | 86 W/m² | - |
| 1778111302 | 15° C | 90% | 1014.6 hPa | 0 mm | - | 94 W/m² | - |
* Rain latest hour (hover to see other rain measurements)
** Current wind speed in m/s (hover to see current wind gust speed)